Morganton, NC

12:19 AM EDT on July 27, 2017 (GMT -0400)
Morganton-Lenoir

Weather History for KMRN - November, 2013

Change the Weather History Date:

Sunday, November 10, 2013

  Actual Average (KHKY) Record (KHKY)
Temperature  
Mean Temperature 50 °F -  
Max Temperature 71 °F 63 °F 86 °F (1996)
Min Temperature 30 °F 40 °F 24 °F (1973)
Degree Days  
Heating Degree Days 15    
Moisture  
Dew Point 29 °F    
Average Humidity 55    
Maximum Humidity 99    
Minimum Humidity 16    
Precipitation  
Precipitation 0.00 in - - ()
Sea Level Pressure  
Sea Level Pressure 30.24 in    
Wind  
Wind Speed 3 mph (WNW)    
Max Wind Speed 17 mph    
Max Gust Speed 23 mph    
Visibility 10 miles    
Events      
Averages and records for this station are not official NWS values.
T = Trace of Precipitation, MM = Missing Value Source: NWS Daily Summary

Daily Weather History Graph

Daily Weather History Graph

Search for Another Location

Airport or City:

Trip Planner

Search our weather history database for the weather conditions in past years. The results will help you decide how hot, cold, wet, or windy it might be!

Date:

Astronomy

Nov. 10, 2013 Rise Set
Actual Time 6:57 AM EST 5:22 PM EST
Civil Twilight 6:30 AM EST 5:49 PM EST
Nautical Twilight 6:00 AM EST 6:20 PM EST
Astronomical Twilight 5:30 AM EST 6:50 PM EST
Moon 1:14 PM EST (11/10) No Moon Set
Length of Visible Light 11h 18m
Length of Day
10h 24m
First Quarter, 55% of the Moon is Illuminated
Nov 10
First Quarter
Nov 17
Full
Nov 25
Last Quarter
Dec 2
New
Dec 9
First Quarter

Hourly Weather History & Observations

Time (EST) Temp. Windchill Dew Point Humidity Pressure Visibility Wind Dir Wind Speed Gust Speed Precip Events Conditions
12:15 AM 33.4 °F - 31.3 °F 92% 30.23 in 10.0 mi Calm Calm - N/A   Clear
12:35 AM 34.5 °F 31.6 °F 33.1 °F 94% 30.22 in 10.0 mi NW 3.5 mph - N/A   Clear
12:55 AM 34.9 °F - 32.0 °F 89% 30.22 in 10.0 mi Calm Calm - N/A   Clear
1:15 AM 33.6 °F - 31.8 °F 93% 30.22 in 10.0 mi Calm Calm - N/A   Clear
1:35 AM 35.6 °F 32.8 °F 32.2 °F 87% 30.22 in 10.0 mi NNE 3.5 mph - N/A   Clear
1:55 AM 33.6 °F - 31.6 °F 92% 30.22 in 10.0 mi Calm Calm - N/A   Clear
2:15 AM 32.7 °F - 31.6 °F 96% 30.22 in 10.0 mi Calm Calm - N/A   Clear
2:35 AM 32.2 °F - 31.5 °F 97% 30.22 in 10.0 mi Calm Calm - N/A   Clear
2:55 AM 32.0 °F - 31.5 °F 98% 30.22 in 10.0 mi Calm Calm - N/A   Clear
3:15 AM 32.0 °F 28.7 °F 31.5 °F 98% 30.22 in 10.0 mi North 3.5 mph - N/A   Clear
3:35 AM 34.5 °F 29.4 °F 32.2 °F 91% 30.22 in 10.0 mi North 5.8 mph - N/A   Clear
3:55 AM 34.7 °F - 32.0 °F 90% 30.22 in 10.0 mi Calm Calm - N/A   Clear
4:15 AM 31.6 °F - 30.2 °F 94% 30.23 in 7.0 mi Calm Calm - N/A   Clear
4:35 AM 31.1 °F - 29.7 °F 94% 30.23 in 7.0 mi Calm Calm - N/A   Clear
4:55 AM 31.5 °F 28.1 °F 30.9 °F 98% 30.23 in 7.0 mi NW 3.5 mph - N/A   Clear
5:15 AM 30.4 °F - 29.1 °F 95% 30.23 in 7.0 mi Calm Calm - N/A   Clear
5:35 AM 30.6 °F - 29.7 °F 96% 30.24 in 7.0 mi Calm Calm - N/A   Clear
5:55 AM 30.0 °F - 29.3 °F 97% 30.25 in 7.0 mi Calm Calm - N/A   Clear
6:15 AM 30.0 °F - 29.3 °F 97% 30.25 in 7.0 mi Calm Calm - N/A   Clear
6:35 AM 30.2 °F - 29.7 °F 98% 30.26 in 10.0 mi Calm Calm - N/A   Clear
6:55 AM 30.2 °F - 29.8 °F 99% 30.26 in 7.0 mi Calm Calm - N/A   Clear
7:15 AM 31.8 °F - 31.3 °F 98% 30.26 in 10.0 mi Calm Calm - N/A   Clear
7:35 AM 33.1 °F - 32.2 °F 96% 30.26 in 10.0 mi Calm Calm - N/A   Clear
7:55 AM 36.1 °F - 33.8 °F 91% 30.27 in 10.0 mi Calm Calm - N/A   Clear
8:15 AM 41.9 °F - 36.7 °F 82% 30.28 in 10.0 mi Calm Calm - N/A   Clear
8:35 AM 45.1 °F - 35.2 °F 68% 30.28 in 10.0 mi Calm Calm - N/A   Clear
8:55 AM 46.9 °F - 32.7 °F 58% 30.27 in 10.0 mi Calm Calm - N/A   Clear
9:15 AM 53.6 °F - 33.3 °F 46% 30.27 in 10.0 mi WSW 5.8 mph - N/A   Clear
9:35 AM 57.4 °F - 33.8 °F 41% 30.27 in 10.0 mi WSW 6.9 mph - N/A   Clear
9:55 AM 57.9 °F - 34.3 °F 41% 30.27 in 10.0 mi SW 8.1 mph - N/A   Clear
10:15 AM 59.7 °F - 34.5 °F 39% 30.27 in 10.0 mi SW 6.9 mph - N/A   Clear
10:35 AM 61.2 °F - 35.8 °F 39% 30.26 in 10.0 mi SW 8.1 mph - N/A   Clear
10:55 AM 63.0 °F - 33.1 °F 33% 30.26 in 10.0 mi SW 8.1 mph - N/A   Clear
11:15 AM 64.2 °F - 32.7 °F 31% 30.25 in 10.0 mi WSW 8.1 mph - N/A   Clear
11:35 AM 64.9 °F - 32.4 °F 30% 30.24 in 10.0 mi SW 6.9 mph - N/A   Clear
11:55 AM 66.0 °F - 32.0 °F 28% 30.23 in 10.0 mi SW 6.9 mph - N/A   Clear
12:15 PM 67.1 °F - 31.6 °F 27% 30.22 in 10.0 mi WNW 8.1 mph - N/A   Clear
12:35 PM 68.4 °F - 30.6 °F 25% 30.21 in 10.0 mi WNW 9.2 mph - N/A   Clear
12:55 PM 68.9 °F - 28.8 °F 22% 30.20 in 10.0 mi WSW 10.4 mph - N/A   Clear
1:15 PM 70.0 °F - 27.5 °F 20% 30.19 in 10.0 mi WNW 5.8 mph - N/A   Clear
1:35 PM 70.7 °F - 26.1 °F 19% 30.19 in 10.0 mi WNW 6.9 mph - N/A   Clear
1:55 PM 70.7 °F - 22.8 °F 16% 30.18 in 10.0 mi West 10.4 mph 23.0 mph N/A   Clear
2:15 PM 70.3 °F - 22.3 °F 16% 30.18 in 10.0 mi WNW 9.2 mph 19.6 mph N/A   Clear
2:35 PM 70.5 °F - 22.6 °F 16% 30.18 in 10.0 mi West 8.1 mph 17.3 mph N/A   Clear
2:55 PM 70.2 °F - 23.2 °F 17% 30.18 in 10.0 mi West 6.9 mph - N/A   Clear
3:15 PM 70.0 °F - 25.2 °F 19% 30.18 in 10.0 mi West 8.1 mph 16.1 mph N/A   Clear
3:35 PM 69.6 °F - 25.9 °F 19% 30.18 in 10.0 mi West 5.8 mph - N/A   Clear
3:55 PM 68.7 °F - 27.0 °F 21% 30.19 in 10.0 mi NNW 8.1 mph - N/A   Clear
4:15 PM 67.1 °F - 25.9 °F 21% 30.20 in 10.0 mi WNW 17.3 mph 21.9 mph N/A   Clear
4:35 PM 65.7 °F - 24.3 °F 21% 30.20 in 10.0 mi NW 10.4 mph 16.1 mph N/A   Clear
4:55 PM 64.4 °F - 23.0 °F 21% 30.21 in 10.0 mi NW 9.2 mph 17.3 mph N/A   Clear
5:15 PM 62.4 °F - 25.2 °F 24% 30.21 in 10.0 mi NNW 3.5 mph - N/A   Clear
5:35 PM 60.3 °F - 25.5 °F 27% 30.22 in 10.0 mi NNW 5.8 mph - N/A   Clear
5:55 PM 60.3 °F - 25.3 °F 26% 30.22 in 10.0 mi NNW 9.2 mph - N/A   Clear
6:15 PM 58.1 °F - 25.7 °F 29% 30.23 in 10.0 mi Calm Calm - N/A   Clear
6:35 PM 51.8 °F - 29.3 °F 42% 30.24 in 10.0 mi Calm Calm - N/A   Clear
6:55 PM 49.6 °F - 29.7 °F 46% 30.24 in 10.0 mi West 3.5 mph - N/A   Clear
7:15 PM 54.1 °F - 28.2 °F 37% 30.24 in 10.0 mi West 3.5 mph - N/A   Clear
7:35 PM 43.9 °F - 32.0 °F 63% 30.25 in 10.0 mi Calm Calm - N/A   Clear
7:55 PM 41.9 °F - 32.0 °F 68% 30.26 in 10.0 mi Calm Calm - N/A   Clear
8:15 PM 43.3 °F 41.7 °F 31.3 °F 62% 30.26 in 10.0 mi South 3.5 mph - N/A   Clear
8:35 PM 41.0 °F 38.0 °F 31.6 °F 69% 30.26 in 10.0 mi East 4.6 mph - N/A   Clear
8:55 PM 51.8 °F - 28.4 °F 41% 30.26 in 10.0 mi WNW 4.6 mph - N/A   Clear
9:15 PM 54.5 °F - 25.0 °F 32% 30.26 in 10.0 mi NW 6.9 mph - N/A   Clear
9:35 PM 54.7 °F - 23.4 °F 30% 30.27 in 10.0 mi WNW 8.1 mph - N/A   Clear
9:55 PM 53.6 °F - 22.3 °F 30% 30.28 in 10.0 mi NNW 4.6 mph - N/A   Clear
10:15 PM 50.2 °F - 23.7 °F 36% 30.28 in 10.0 mi North 3.5 mph - N/A   Clear
10:35 PM 49.5 °F - 24.6 °F 38% 30.29 in 10.0 mi North 4.6 mph - N/A   Clear
10:55 PM 48.7 °F - 24.3 °F 38% 30.29 in 10.0 mi North 5.8 mph - N/A   Clear
11:15 PM 46.4 °F 43.5 °F 24.8 °F 43% 30.30 in 10.0 mi North 5.8 mph - N/A   Clear
11:35 PM 48.7 °F - 23.7 °F 38% 30.30 in 10.0 mi NNW 6.9 mph - N/A   Clear
11:55 PM 44.4 °F 42.0 °F 25.2 °F 47% 30.30 in 10.0 mi NNE 4.6 mph - N/A   Clear